Location: Killam
(52.7910°N, 111.8608°W)
Time: 10:27:58
(UTC+00:00)

SR - Pass Details

Date: 22 February 2026
Orbit: 573 x 848 km, 66.7° (Epoch: 7 March)

Event Time Altitude Azimuth Distance (km) Brightness Sun altitude
Exits shadow 12:37:32 33° 290° (WNW) 1,049 ? -17.6°
Maximum altitude 12:38:35 38° 323° (NW) 961 ? -17.4°
Drops below altitude 10° 12:42:55 10° 31° (NNE) 2,067 ? -16.8°
Sets 12:45:28 0° 40° (NE) 3,030 ? -16.4°
